Providence, RI

8:57 PM EDT on April 26, 2018 (GMT -0400)
Green State

Weather History for KPVD - August, 2014

Change the Weather History Date:

Friday, August 29, 2014

  Actual Average Record
Temperature  
Mean Temperature 68 °F 70 °F  
Max Temperature 77 °F 80 °F 95 °F (1953)
Min Temperature 58 °F 61 °F 44 °F (1986)
Degree Days  
Heating Degree Days 0 0  
Month to date heating degree days 0 0  
Since 1 June heating degree days 13 46  
Since 1 July heating degree days 0 3  
Cooling Degree Days 3 6  
Month to date cooling degree days 168 221  
Year to date cooling degree days 571 645  
Since 1 June cooling degree days 560 619  
Growing Degree Days 17 (Base 50)    
Moisture  
Dew Point 52 °F    
Average Humidity 65    
Maximum Humidity 87    
Minimum Humidity 43    
Precipitation  
Precipitation 0.00 in 0.10 in 1.88 in (1959)
Month to date precipitation 2.48 3.38  
Year to date precipitation 31.23 30.38  
Snow  
Snow 0.00 in 0.00 in 0.00 in (2002)
Month to date snowfall 0.0 0.0  
Since 1 June snowfall 0.0 0.0  
Since 1 July snowfall 0.0 0.0  
Snow Depth 0.00 in    
Sea Level Pressure  
Sea Level Pressure 30.16 in    
Wind  
Wind Speed 6 mph (North)    
Max Wind Speed 14 mph    
Max Gust Speed 18 mph    
Visibility 10 miles    
Events      
T = Trace of Precipitation, MM = Missing Value Source: NWS Daily Summary

Daily Weather History Graph

Daily Weather History Graph

Search for Another Location

Airport or City:

Astronomy

Aug. 29, 2014 Rise Set
Actual Time 6:08 AM EDT 7:23 PM EDT
Civil Twilight 5:39 AM EDT 7:52 PM EDT
Nautical Twilight 5:05 AM EDT 8:27 PM EDT
Astronomical Twilight 4:28 AM EDT 9:03 PM EDT
Moon 9:58 AM EDT (8/29) 9:15 PM EDT (8/29)
Length of Visible Light 14h 12m
Length of Day
13h 15m
Waxing Crescent, 15% of the Moon is Illuminated
Aug 29
Waxing Crescent
Sep 2
First Quarter
Sep 8
Full
Sep 15
Last Quarter
Sep 24
New

Hourly Weather History & Observations

Time (EDT) Temp. Dew Point Humidity Pressure Visibility Wind Dir Wind Speed Gust Speed Precip Events Conditions
12:51 AM 62.1 °F 50.0 °F 65% 30.03 in 10.0 mi WNW 5.8 mph - N/A   Clear
1:51 AM 61.0 °F 48.9 °F 64% 30.04 in 10.0 mi NW 9.2 mph - N/A   Clear
2:51 AM 60.1 °F 48.9 °F 67% 30.04 in 10.0 mi WNW 8.1 mph - N/A   Clear
3:51 AM 60.1 °F 48.9 °F 67% 30.06 in 10.0 mi NNW 8.1 mph - N/A   Clear
4:51 AM 59.0 °F 48.9 °F 69% 30.06 in 10.0 mi NNW 5.8 mph - N/A   Clear
5:51 AM 57.9 °F 48.9 °F 72% 30.09 in 10.0 mi NNW 5.8 mph - N/A   Clear
6:51 AM 59.0 °F 50.0 °F 72% 30.11 in 10.0 mi NNW 5.8 mph - N/A   Partly Cloudy
7:51 AM 63.0 °F 51.1 °F 65% 30.14 in 10.0 mi North 9.2 mph - N/A   Partly Cloudy
8:51 AM 68.0 °F 52.0 °F 56% 30.16 in 10.0 mi North 10.4 mph - N/A   Partly Cloudy
9:51 AM 71.1 °F 51.1 °F 49% 30.17 in 10.0 mi North 8.1 mph - N/A   Partly Cloudy
10:51 AM 73.4 °F 51.8 °F 47% 30.18 in 10.0 mi Variable 4.6 mph - N/A   Partly Cloudy
11:51 AM 73.0 °F 50.0 °F 44% 30.19 in 10.0 mi Calm Calm - N/A   Mostly Cloudy
12:51 PM 75.0 °F 51.1 °F 43% 30.18 in 10.0 mi East 8.1 mph - N/A   Scattered Clouds
1:51 PM 75.0 °F 51.1 °F 43% 30.19 in 10.0 mi Variable 5.8 mph - N/A   Mostly Cloudy
2:51 PM 75.0 °F 51.1 °F 43% 30.19 in 10.0 mi East 6.9 mph - N/A   Mostly Cloudy
3:51 PM 75.9 °F 52.0 °F 43% 30.18 in 10.0 mi SE 6.9 mph - N/A   Mostly Cloudy
4:51 PM 73.0 °F 55.9 °F 55% 30.19 in 10.0 mi SSE 11.5 mph - N/A   Scattered Clouds
5:51 PM 71.6 °F 55.4 °F 57% 30.20 in 10.0 mi SSE 9.2 mph - N/A   Scattered Clouds
6:51 PM 69.1 °F 55.9 °F 63% 30.22 in 10.0 mi South 5.8 mph - N/A   Scattered Clouds
7:51 PM 66.0 °F 55.9 °F 70% 30.24 in 10.0 mi SSW 6.9 mph - N/A   Scattered Clouds
8:51 PM 64.0 °F 54.0 °F 70% 30.26 in 10.0 mi SSE 3.5 mph - N/A   Scattered Clouds
9:51 PM 62.1 °F 54.0 °F 75% 30.27 in 10.0 mi ESE 4.6 mph - N/A   Scattered Clouds
10:51 PM 60.8 °F 53.6 °F 77% 30.29 in 10.0 mi South 3.5 mph - N/A   Scattered Clouds
11:51 PM 59.0 °F 55.0 °F 87% 30.28 in 10.0 mi Calm Calm - N/A   Scattered Clouds